Вернуться в каталог

STARLINK-32270

АктивенСвязьVLEO
NORAD 60364·PAYLOAD·🇺🇸 United States

Запущен Aug 4, 2024 с Vandenberg Space Force Base

Loading…

Ближайшие Пролёты (ближайшие 24 часа)

TLE

СвежийSource: CelesTrak SupGP

Эпоха: Sep 14, 2026, 22:35 UTC

1 60364C 24138K   26257.94145833 -.00053854  00000+0 -17316-2 0  2579
2 60364  53.1562 149.5732 0001251  79.4869  30.9531 15.31732956    10

Отслеживайте STARLINK-32270 в реальном времени с AllMySat

Download on the App Store